Location: Erba
(45.8000°N, 9.2500°E)
Time: 12:18:11
(UTC+02:00)

ISS - Pass Details

Date: 10 July 2020
Orbit: 417 x 420 km, 51.6° (Epoch: 02 July)

Event Time Altitude Azimuth Distance (km) Brightness Sun altitude
Exits shadow 03:22:54 - 285° (WNW) 1,867 -0.6 -17.2°
Reaches altitude 10° 03:23:54 10° 292° (WNW) 1,497 -1.0 -17.1°
Maximum altitude 03:26:53 29° 355° (N) 792 -1.8 -16.9°
Drops below altitude 10° 03:29:54 10° 58° (ENE) 1,497 0.0 -16.6°
Sets 03:32:10 0° 70° (ENE) 2,360 0.9 -16.4°
